{"data":{"norad_id":28493,"intl_designator":"2004-049B","name":"NANOSAT-1","alt_names":[],"object_type":"PAYLOAD","status":"ACTIVE","operator":null,"country":"SPN","launch_date":"2004-12-18","launch_site_code":"FRGUI","launch_vehicle":null,"mission":null,"orbit_class":"UNKNOWN","rcs_meters":0.2712,"size_class":null,"mass_kg":null,"dimensions":null,"purposes":[],"wikipedia_slug":null,"has_3d_model":false,"image_url":null,"decayed_at":null,"tle_current":{"epoch":"2026-09-19T14:27:45.326016Z","epoch_age_seconds":85430,"freshness":"FRESH","line1":"1 28493U 04049B   26262.60260794  .00000627  00000+0  89539-4 0  9997","line2":"2 28493  98.2414  41.6566 0003939   8.2830 351.8445 14.80314856169410","mean_motion":14.80314856,"eccentricity":0.0003939,"inclination_deg":98.2414,"raan_deg":41.6566,"arg_perigee_deg":8.283,"mean_anomaly_deg":351.8445,"bstar":8.9539e-5,"rev_number":16941,"period_min":97.276602620274,"perigee_km":625.57061600272,"apogee_km":631.09031107049,"semimajor_km":7006.4674635366,"source":"CELESTRAK","updated_at":"2026-09-20T09:00:13.630006Z"}}}